Weather History for KBHB - March, 2013

Change the Weather History Date:

Monday, March 25, 2013

  Actual Average Record
Temperature  
Mean Temperature 34 °F -  
Max Temperature 42 °F 44 °F 63 °F (1979)
Min Temperature 26 °F 28 °F 6 °F (2014)
Degree Days  
Heating Degree Days 31    
Moisture  
Dew Point 28 °F    
Average Humidity 77    
Maximum Humidity 100    
Minimum Humidity 53    
Precipitation  
Precipitation 0.00 in - - ()
Sea Level Pressure  
Sea Level Pressure 29.69 in    
Wind  
Wind Speed 4 mph (NE)    
Max Wind Speed 16 mph    
Max Gust Speed 25 mph    
Visibility 10 miles    
Events      
Averages and records for this station are not official NWS values.
T = Trace of Precipitation, MM = Missing Value Source: NWS Daily Summary

Daily Weather History Graph

Daily Weather History Graph

Search for Another Location

Airport or City:

Trip Planner

Search our weather history database for the weather conditions in past years. The results will help you decide how hot, cold, wet, or windy it might be!

Date:

Astronomy

Mar. 25, 2013 Rise Set
Actual Time 6:26 AM EDT 6:52 PM EDT
Civil Twilight 5:57 AM EDT 7:21 PM EDT
Nautical Twilight 5:23 AM EDT 7:55 PM EDT
Astronomical Twilight 4:48 AM EDT 8:31 PM EDT
Moon 5:18 PM EDT 5:11 AM EDT
Length of Visible Light 13h 23m
Length of Day
12h 25m
Waxing Gibbous, 96% of the Moon is Illuminated
Mar 25
Waxing Gibbous
Mar 27
Full
Apr 3
Last Quarter
Apr 10
New
Apr 18
First Quarter

Hourly Weather History & Observations

Time (EDT) Temp. Windchill Dew Point Humidity Pressure Visibility Wind Dir Wind Speed Gust Speed Precip Events Conditions
12:15 AM 30.2 °F - 28.4 °F 93% 29.75 in 10.0 mi Calm Calm - N/A   Clear
12:35 AM 30.2 °F - 28.4 °F 93% 29.75 in 10.0 mi Calm Calm - N/A   Clear
12:55 AM 28.4 °F - 28.4 °F 100% 29.74 in 10.0 mi Calm Calm - N/A   Clear
1:15 AM 28.4 °F - 26.6 °F 93% 29.74 in 10.0 mi Calm Calm - N/A   Clear
1:35 AM 28.4 °F 24.6 °F 26.6 °F 93% 29.74 in 10.0 mi North 3.5 mph - N/A   Clear
1:55 AM 28.4 °F 23.3 °F 26.6 °F 93% 29.74 in 10.0 mi NNW 4.6 mph - N/A   Clear
2:15 AM 28.4 °F 24.6 °F 26.6 °F 93% 29.74 in 10.0 mi NNW 3.5 mph - N/A   Clear
2:35 AM 28.4 °F - 26.6 °F 93% 29.74 in 10.0 mi Calm Calm - N/A   Clear
2:55 AM 28.4 °F 24.6 °F 26.6 °F 93% 29.74 in 10.0 mi NNW 3.5 mph - N/A   Clear
3:15 AM 26.6 °F - 26.6 °F 100% 29.74 in 10.0 mi Calm Calm - N/A   Clear
3:35 AM 26.6 °F - 26.6 °F 100% 29.75 in 10.0 mi Calm Calm - N/A   Clear
3:55 AM 26.6 °F - 26.6 °F 100% 29.75 in 10.0 mi Calm Calm - N/A   Clear
4:15 AM 26.6 °F 22.6 °F 24.8 °F 93% 29.75 in 10.0 mi NNW 3.5 mph - N/A   Clear
4:35 AM 26.6 °F 22.6 °F 26.6 °F 100% 29.75 in 10.0 mi North 3.5 mph - N/A   Clear
4:55 AM 26.6 °F 22.6 °F 26.6 °F 100% 29.75 in 10.0 mi NNW 3.5 mph - N/A   Clear
5:15 AM 28.4 °F 24.6 °F 26.6 °F 93% 29.75 in 10.0 mi North 3.5 mph - N/A   Clear
5:35 AM 26.6 °F 21.2 °F 24.8 °F 93% 29.75 in 10.0 mi North 4.6 mph - N/A   Clear
5:55 AM 26.6 °F 21.2 °F 24.8 °F 93% 29.75 in 10.0 mi North 4.6 mph - N/A   Clear
6:15 AM 26.6 °F 19.1 °F 24.8 °F 93% 29.75 in 10.0 mi North 6.9 mph - N/A   Clear
6:35 AM 26.6 °F 19.1 °F 26.6 °F 100% 29.75 in 10.0 mi North 6.9 mph - N/A   Clear
6:55 AM 28.4 °F 22.2 °F 28.4 °F 100% 29.75 in 10.0 mi North 5.8 mph - N/A   Clear
7:15 AM 28.4 °F 20.4 °F 28.4 °F 100% 29.74 in 10.0 mi North 8.1 mph - N/A   Mostly Cloudy
7:35 AM 28.4 °F 20.4 °F 28.4 °F 100% 29.74 in 10.0 mi North 8.1 mph - N/A   Scattered Clouds
7:55 AM 28.4 °F 21.2 °F 28.4 °F 100% 29.74 in 10.0 mi North 6.9 mph - N/A   Partly Cloudy
8:15 AM 30.2 °F 23.4 °F 30.2 °F 100% 29.74 in 10.0 mi North 6.9 mph - N/A   Mostly Cloudy
8:35 AM 33.8 °F 26.4 °F 30.2 °F 87% 29.74 in 10.0 mi North 9.2 mph - N/A   Overcast
8:55 AM 35.6 °F 28.6 °F 30.2 °F 81% 29.73 in 10.0 mi North 9.2 mph - N/A   Mostly Cloudy
9:15 AM 35.6 °F 28.6 °F 30.2 °F 81% 29.73 in 10.0 mi North 9.2 mph - N/A   Partly Cloudy
9:35 AM 37.4 °F 29.8 °F 32.0 °F 81% 29.73 in 10.0 mi NNE 11.5 mph - N/A   Clear
9:55 AM 37.4 °F 29.8 °F 30.2 °F 75% 29.73 in 10.0 mi NNE 11.5 mph - N/A   Clear
10:15 AM 37.4 °F 29.3 °F 30.2 °F 75% 29.73 in 10.0 mi NNE 12.7 mph - N/A   Clear
10:35 AM 39.2 °F 33.0 °F 30.2 °F 70% 29.73 in 10.0 mi NNE 9.2 mph - N/A   Partly Cloudy
10:55 AM 39.2 °F 33.6 °F 30.2 °F 70% 29.72 in 10.0 mi North 8.1 mph - N/A   Scattered Clouds
11:15 AM 41.0 °F 36.4 °F 30.2 °F 65% 29.72 in 10.0 mi NE 6.9 mph - N/A   Mostly Cloudy
11:35 AM 41.0 °F 37.1 °F 30.2 °F 65% 29.71 in 10.0 mi SE 5.8 mph - N/A   Overcast
11:55 AM 42.8 °F 38.0 °F 30.2 °F 61% 29.71 in 10.0 mi SE 8.1 mph - N/A   Overcast
12:15 PM 41.0 °F 38.0 °F 28.4 °F 61% 29.70 in 10.0 mi SE 4.6 mph - N/A   Overcast
12:35 PM 42.8 °F 40.1 °F 28.4 °F 57% 29.70 in 10.0 mi ESE 4.6 mph - N/A   Overcast
12:55 PM 42.8 °F 41.1 °F 26.6 °F 53% 29.69 in 10.0 mi SE 3.5 mph - N/A   Overcast
1:15 PM 42.8 °F 39.3 °F 26.6 °F 53% 29.68 in 10.0 mi ESE 5.8 mph - N/A   Overcast
1:35 PM 42.8 °F 39.3 °F 26.6 °F 53% 29.68 in 10.0 mi SE 5.8 mph - N/A   Overcast
1:55 PM 42.8 °F 40.1 °F 26.6 °F 53% 29.67 in 10.0 mi SE 4.6 mph - N/A   Overcast
2:15 PM 42.8 °F 39.3 °F 26.6 °F 53% 29.66 in 10.0 mi ESE 5.8 mph - N/A   Overcast
2:35 PM 42.8 °F 39.3 °F 28.4 °F 57% 29.66 in 10.0 mi ESE 5.8 mph - N/A   Overcast
2:55 PM 42.8 °F 39.3 °F 28.4 °F 57% 29.65 in 10.0 mi East 5.8 mph - N/A   Overcast
3:15 PM 42.8 °F 39.3 °F 28.4 °F 57% 29.65 in 10.0 mi East 5.8 mph - N/A   Overcast
3:35 PM 41.0 °F 37.1 °F 30.2 °F 65% 29.65 in 10.0 mi East 5.8 mph - N/A   Overcast
3:55 PM 41.0 °F 37.1 °F 30.2 °F 65% 29.65 in 10.0 mi East 5.8 mph - N/A   Overcast
4:15 PM 41.0 °F 39.0 °F 28.4 °F 61% 29.64 in 10.0 mi East 3.5 mph - N/A   Overcast
4:35 PM 41.0 °F 38.0 °F 30.2 °F 65% 29.64 in 10.0 mi ENE 4.6 mph - N/A   Overcast
4:55 PM 41.0 °F 39.0 °F 30.2 °F 65% 29.63 in 10.0 mi ENE 3.5 mph - N/A   Overcast
5:15 PM 41.0 °F - 28.4 °F 61% 29.61 in 10.0 mi Calm Calm - N/A   Overcast
5:35 PM 41.0 °F 37.1 °F 30.2 °F 65% 29.61 in 10.0 mi NE 5.8 mph - N/A   Overcast
5:55 PM 39.2 °F 35.0 °F 30.2 °F 70% 29.60 in 10.0 mi NNE 5.8 mph - N/A   Overcast
6:15 PM 39.2 °F 35.9 °F 30.2 °F 70% 29.60 in 10.0 mi NNE 4.6 mph - N/A   Overcast
6:35 PM 39.2 °F 37.0 °F 30.2 °F 70% 29.61 in 10.0 mi NNE 3.5 mph - N/A   Overcast
6:55 PM 39.2 °F 32.0 °F 26.6 °F 61% 29.61 in 10.0 mi NNE 11.5 mph 19.6 mph N/A   Overcast
7:15 PM 39.2 °F 30.5 °F 26.6 °F 61% 29.61 in 10.0 mi NNE 16.1 mph 25.3 mph N/A   Overcast
7:35 PM 39.2 °F 32.0 °F 28.4 °F 65% 29.61 in 10.0 mi NNE 11.5 mph - N/A   Overcast
7:55 PM 39.2 °F 35.0 °F 28.4 °F 65% 29.62 in 10.0 mi NE 5.8 mph - N/A   Overcast
8:15 PM 37.4 °F 32.1 °F 30.2 °F 75% 29.62 in 10.0 mi ENE 6.9 mph - N/A   Overcast
8:35 PM 37.4 °F 32.8 °F 30.2 °F 75% 29.62 in 10.0 mi ENE 5.8 mph - N/A   Overcast
8:55 PM 37.4 °F 32.8 °F 28.4 °F 70% 29.63 in 10.0 mi NNE 5.8 mph - N/A   Overcast
9:15 PM 37.4 °F 32.1 °F 28.4 °F 70% 29.63 in 10.0 mi NNE 6.9 mph - N/A   Overcast
9:35 PM 37.4 °F 32.8 °F 28.4 °F 70% 29.63 in 10.0 mi NE 5.8 mph - N/A   Overcast
9:55 PM 37.4 °F 33.8 °F 28.4 °F 70% 29.62 in 10.0 mi NE 4.6 mph - N/A   Overcast
10:15 PM 37.4 °F 32.8 °F 28.4 °F 70% 29.62 in 10.0 mi NNE 5.8 mph - N/A   Overcast
10:35 PM 37.4 °F 30.3 °F 26.6 °F 65% 29.61 in 10.0 mi NE 10.4 mph - N/A   Overcast
10:55 PM 35.6 °F 29.2 °F 26.6 °F 70% 29.61 in 10.0 mi NNE 8.1 mph - N/A   Overcast
11:15 PM 35.6 °F 26.6 °F 26.6 °F 70% 29.60 in 10.0 mi NNE 13.8 mph 21.9 mph N/A   Overcast
11:35 PM 35.6 °F 26.2 °F 24.8 °F 65% 29.59 in 10.0 mi NE 15.0 mph 24.2 mph N/A   Overcast
11:55 PM 35.6 °F 28.0 °F 24.8 °F 65% 29.58 in 10.0 mi NE 10.4 mph - N/A   Overcast